Marietta, GA

2:26 PM EDT on June 25, 2017 (GMT -0400)
Dobbins Air Force Base

Weather History for KMGE - November, 2012

Change the Weather History Date:

Thursday, November 1, 2012

  Actual Average Record
Temperature  
Mean Temperature 48 °F -  
Max Temperature 61 °F 66 °F 81 °F (2016)
Min Temperature 35 °F 47 °F 32 °F (1996)
Degree Days  
Heating Degree Days 17    
Moisture  
Dew Point 23 °F    
Average Humidity 41    
Maximum Humidity 64    
Minimum Humidity 18    
Precipitation  
Precipitation 0.00 in - - ()
Sea Level Pressure  
Sea Level Pressure 29.96 in    
Wind  
Wind Speed 9 mph (WNW)    
Max Wind Speed 16 mph    
Max Gust Speed 23 mph    
Visibility 10 miles    
Events      
Averages and records for this station are not official NWS values.
T = Trace of Precipitation, MM = Missing Value Source: NWS Daily Summary

Daily Weather History Graph

Daily Weather History Graph

Search for Another Location

Airport or City:

Trip Planner

Search our weather history database for the weather conditions in past years. The results will help you decide how hot, cold, wet, or windy it might be!

Date:

Astronomy

Nov. 01, 2012 Rise Set
Actual Time 7:57 AM EDT 6:44 PM EDT
Civil Twilight 7:32 AM EDT 7:10 PM EDT
Nautical Twilight 7:02 AM EDT 7:40 PM EDT
Astronomical Twilight 6:33 AM EDT 8:09 PM EDT
Moon 8:47 PM EDT (11/1) 10:24 AM EDT (11/1)
Length of Visible Light 11h 38m
Length of Day
10h 47m
Waning Gibbous, 93% of the Moon is Illuminated
Nov 1
Waning Gibbous
Nov 6
Last Quarter
Nov 13
New
Nov 20
First Quarter
Nov 28
Full

Hourly Weather History & Observations

Time (EDT) Temp. Windchill Dew Point Humidity Pressure Visibility Wind Dir Wind Speed Gust Speed Precip Events Conditions
12:55 AM 45.3 °F 40.6 °F 27.3 °F 49% 29.91 in 10.0 mi WNW 9.2 mph - N/A   Clear
1:55 AM 42.6 °F 37.8 °F 27.9 °F 56% 29.91 in 10.0 mi West 8.1 mph - N/A   Clear
2:55 AM 39.9 °F 33.4 °F 26.1 °F 58% 29.91 in 10.0 mi WNW 10.4 mph - N/A   Clear
3:55 AM 37.9 °F 32.1 °F 25.7 °F 61% 29.91 in 10.0 mi West 8.1 mph - N/A   Clear
4:55 AM 37.6 °F 31.0 °F 25.7 °F 62% 29.91 in 10.0 mi West 9.2 mph - N/A   Clear
5:55 AM 36.0 °F 29.0 °F 24.8 °F 64% 29.93 in 10.0 mi West 9.2 mph - N/A   Partly Cloudy
6:55 AM 36.1 °F 29.9 °F 24.4 °F 63% 29.95 in 10.0 mi West 8.1 mph - N/A   Clear
7:55 AM 35.2 °F 28.1 °F 24.3 °F 64% 29.96 in 10.0 mi West 9.2 mph - N/A   Partly Cloudy
8:55 AM 39.2 °F 33.0 °F 24.6 °F 56% 29.98 in 10.0 mi West 9.2 mph - N/A   Partly Cloudy
9:55 AM 46.6 °F - 23.0 °F 39% 30.00 in 10.0 mi NW 10.4 mph - N/A   Clear
10:55 AM 48.7 °F - 21.9 °F 35% 30.01 in 10.0 mi NW 15.0 mph 20.7 mph N/A   Clear
11:55 AM 52.7 °F - 21.2 °F 29% 30.01 in 10.0 mi WNW 9.2 mph 21.9 mph N/A   Partly Cloudy
12:55 PM 56.1 °F - 19.0 °F 24% 30.00 in 10.0 mi WNW 16.1 mph 23.0 mph N/A   Partly Cloudy
1:55 PM 58.3 °F - 16.5 °F 20% 29.97 in 10.0 mi NW 15.0 mph 23.0 mph N/A   Partly Cloudy
2:55 PM 59.9 °F - 16.5 °F 18% 29.95 in 10.0 mi WNW 12.7 mph - N/A   Partly Cloudy
3:55 PM 61.5 °F - 18.0 °F 19% 29.94 in 10.0 mi WNW 13.8 mph 19.6 mph N/A   Clear
4:55 PM 61.2 °F - 20.1 °F 21% 29.94 in 10.0 mi West 13.8 mph - N/A   Clear
5:55 PM 60.1 °F - 19.4 °F 21% 29.95 in 10.0 mi WNW 11.5 mph - N/A   Clear
6:55 PM 55.6 °F - 20.1 °F 25% 29.96 in 10.0 mi West 9.2 mph - N/A   Clear
7:55 PM 50.2 °F - 21.6 °F 33% 29.99 in 10.0 mi West 8.1 mph - N/A   Clear
8:55 PM 47.3 °F - 22.8 °F 38% 29.99 in 10.0 mi West 5.8 mph - N/A   Clear
9:55 PM 47.5 °F - 23.9 °F 40% 29.99 in 10.0 mi Calm Calm - N/A   Clear
10:55 PM 46.2 °F - 25.2 °F 44% 30.00 in 10.0 mi Calm Calm - N/A   Clear
11:55 PM 43.0 °F - 27.7 °F 55% 30.00 in 10.0 mi Calm Calm - N/A   Clear